Lafayette, LA

5:08 AM CDT on September 23, 2017 (GMT -0500)
Lafayette Regional

Weather History for KLFT - July, 2013

Change the Weather History Date:

Wednesday, July 24, 2013

  Actual Average Record
Temperature  
Mean Temperature 85 °F 84 °F  
Max Temperature 93 °F 92 °F 102 °F (1924)
Min Temperature 77 °F 75 °F 61 °F (1947)
Cooling Degree Days 20 19  
Month to date cooling degree days 402 440  
Year to date cooling degree days 1407 1552  
Since 1 June cooling degree days 943 938  
Growing Degree Days 34 (Base 50)    
Moisture  
Dew Point 74 °F    
Average Humidity 74    
Maximum Humidity 91    
Minimum Humidity 56    
Precipitation  
Precipitation 0.00 in 0.17 in 3.85 in (1944)
Month to date precipitation 3.42 5.10  
Year to date precipitation 38.70 34.80  
Sea Level Pressure  
Sea Level Pressure 29.95 in    
Wind  
Wind Speed 10 mph (WSW)    
Max Wind Speed 18 mph    
Max Gust Speed 24 mph    
Visibility 10 miles    
Events      
T = Trace of Precipitation, MM = Missing Value Source: NWS Daily Summary

Daily Weather History Graph

Daily Weather History Graph

Search for Another Location

Airport or City:

Trip Planner

Search our weather history database for the weather conditions in past years. The results will help you decide how hot, cold, wet, or windy it might be!

Date:

Astronomy

Jul. 24, 2013 Rise Set
Actual Time 6:21 AM CDT 8:06 PM CDT
Civil Twilight 5:55 AM CDT 8:33 PM CDT
Nautical Twilight 5:23 AM CDT 9:04 PM CDT
Astronomical Twilight 4:50 AM CDT 9:38 PM CDT
Moon 9:29 PM CDT (7/24) 8:28 AM CDT (7/24)
Length of Visible Light 14h 37m
Length of Day
13h 44m
Waning Gibbous, 94% of the Moon is Illuminated
Jul 24
Waning Gibbous
Jul 29
Last Quarter
Aug 6
New
Aug 14
First Quarter
Aug 20
Full

Hourly Weather History & Observations

Time (CDT) Temp. Heat Index Dew Point Humidity Pressure Visibility Wind Dir Wind Speed Gust Speed Precip Events Conditions
12:53 AM 79.0 °F - 75.0 °F 88% 29.96 in 10.0 mi SW 6.9 mph - N/A   Clear
1:53 AM 78.1 °F - 75.0 °F 90% 29.94 in 10.0 mi SW 6.9 mph - N/A   Clear
2:53 AM 78.1 °F - 75.0 °F 90% 29.94 in 9.0 mi SW 6.9 mph - N/A   Clear
3:53 AM 78.1 °F - 73.9 °F 87% 29.95 in 9.0 mi SW 5.8 mph - N/A   Clear
4:53 AM 78.1 °F - 73.9 °F 87% 29.96 in 10.0 mi SW 6.9 mph - N/A   Clear
5:53 AM 78.1 °F - 73.9 °F 87% 29.98 in 10.0 mi SW 6.9 mph - N/A   Clear
6:53 AM 78.1 °F - 73.9 °F 87% 29.98 in 8.0 mi SW 5.8 mph - N/A   Clear
7:53 AM 80.1 °F 85.1 °F 75.0 °F 85% 30.00 in 10.0 mi West 6.9 mph - N/A   Partly Cloudy
8:53 AM 82.9 °F 89.4 °F 73.9 °F 74% 30.00 in 10.0 mi WSW 13.8 mph 19.6 mph N/A   Scattered Clouds
9:53 AM 84.9 °F 91.4 °F 73.0 °F 67% 29.99 in 10.0 mi WSW 13.8 mph - N/A   Scattered Clouds
10:07 AM 84.2 °F 90.9 °F 73.4 °F 70% 29.99 in 10.0 mi WSW 13.8 mph 17.3 mph N/A   Mostly Cloudy
10:53 AM 88.0 °F 95.6 °F 73.0 °F 61% 30.01 in 10.0 mi WSW 15.0 mph 21.9 mph N/A   Mostly Cloudy
11:00 AM 87.8 °F 95.6 °F 73.4 °F 62% 30.01 in 10.0 mi West 13.8 mph 20.7 mph N/A   Scattered Clouds
11:53 AM 89.1 °F 96.0 °F 72.0 °F 57% 30.00 in 10.0 mi West 11.5 mph 24.2 mph N/A   Partly Cloudy
12:53 PM 91.0 °F 99.3 °F 73.0 °F 55% 29.97 in 10.0 mi WSW 15.0 mph 21.9 mph N/A   Partly Cloudy
1:53 PM 91.9 °F 100.7 °F 73.0 °F 54% 29.95 in 10.0 mi WSW 13.8 mph 19.6 mph N/A   Scattered Clouds
2:53 PM 90.0 °F 96.9 °F 72.0 °F 55% 29.93 in 10.0 mi West 10.4 mph - N/A   Clear
3:53 PM 91.9 °F 100.7 °F 73.0 °F 54% 29.91 in 10.0 mi WSW 11.5 mph 19.6 mph N/A   Scattered Clouds
4:53 PM 91.0 °F 100.4 °F 73.9 °F 57% 29.89 in 10.0 mi SSW 13.8 mph - N/A   Mostly Cloudy
5:53 PM 90.0 °F 99.0 °F 73.9 °F 59% 29.90 in 10.0 mi WSW 9.2 mph 17.3 mph N/A   Clear
6:53 PM 88.0 °F 97.5 °F 75.0 °F 65% 29.90 in 10.0 mi WSW 9.2 mph - N/A   Clear
7:53 PM 86.0 °F 93.8 °F 73.9 °F 67% 29.92 in 10.0 mi WSW 10.4 mph - N/A   Clear
8:53 PM 84.9 °F 93.3 °F 75.0 °F 72% 29.93 in 10.0 mi WSW 10.4 mph - N/A   Clear
9:53 PM 84.0 °F 91.9 °F 75.0 °F 74% 29.94 in 10.0 mi WSW 10.4 mph - N/A   Mostly Cloudy
10:45 PM 82.4 °F 89.5 °F 75.2 °F 79% 29.95 in 10.0 mi Variable 5.8 mph - N/A   Mostly Cloudy
10:53 PM 82.9 °F 90.8 °F 75.9 °F 79% 29.95 in 10.0 mi NW 6.9 mph - N/A   Mostly Cloudy
11:19 PM 82.4 °F 89.5 °F 75.2 °F 79% 29.95 in 10.0 mi WSW 6.9 mph - 0.00 in   Mostly Cloudy
11:53 PM 82.0 °F 88.6 °F 75.0 °F 79% 29.94 in 10.0 mi West 5.8 mph - 0.00 in   Clear